Satellite: NOAA-10 Catalog number: 16969 Epoch time: 11215.66350002 Element set: 0591 Inclination: 098.6158 deg RA of node: 244.8005 deg Eccentricity: 0.0013162 Arg of perigee: 086.6093 deg Mean anomaly: 273.6579 deg Mean motion: 14.27471407 rev/day Decay rate: 9.1e-07 rev/day^2 Epoch rev: 29442 Checksum: 302
Satellite: NOAA-11 Catalog number: 19531 Epoch time: 11215.86242253 Element set: 0589 Inclination: 098.7526 deg RA of node: 302.4229 deg Eccentricity: 0.0011926 Arg of perigee: 054.2452 deg Mean anomaly: 305.9832 deg Mean motion: 14.14921848 rev/day Decay rate: 2.96e-06 rev/day^2 Epoch rev: 17949 Checksum: 314
Satellite: NOAA-12 Catalog number: 21263 Epoch time: 11215.94906708 Element set: 0096 Inclination: 098.7508 deg RA of node: 233.7085 deg Eccentricity: 0.0013379 Arg of perigee: 050.0544 deg Mean anomaly: 310.1809 deg Mean motion: 14.25728713 rev/day Decay rate: 6.4e-07 rev/day^2 Epoch rev: 05121 Checksum: 283
Satellite: MET-3/5 Catalog number: 21655 Epoch time: 11215.84214398 Element set: 0175 Inclination: 082.5569 deg RA of node: 017.0952 deg Eccentricity: 0.0014361 Arg of perigee: 042.3289 deg Mean anomaly: 317.8891 deg Mean motion: 13.17029423 rev/day Decay rate: 5.1e-07 rev/day^2 Epoch rev: 95999 Checksum: 318
Satellite: MET-2/21 Catalog number: 22782 Epoch time: 11215.69358120 Element set: 0168 Inclination: 082.5486 deg RA of node: 285.1910 deg Eccentricity: 0.0021755 Arg of perigee: 329.5653 deg Mean anomaly: 030.4262 deg Mean motion: 13.83660805 rev/day Decay rate: 4.4e-07 rev/day^2 Epoch rev: 90512 Checksum: 290
Satellite: OKEAN-4 Catalog number: 23317 Epoch time: 11216.87613918 Element set: 629 Inclination: 082.5418 deg RA of node: 327.6715 deg Eccentricity: 0.0020916 Arg of perigee: 322.7231 deg Mean anomaly: 037.2531 deg Mean motion: 14.83116807 rev/day Decay rate: 3.41e-06 rev/day^2 Epoch rev: 90776 Checksum: 295
Satellite: NOAA-14 Catalog number: 23455 Epoch time: 11215.94671850 Element set: 0580 Inclination: 098.8505 deg RA of node: 298.1052 deg Eccentricity: 0.0009713 Arg of perigee: 139.4007 deg Mean anomaly: 220.7888 deg Mean motion: 14.13826446 rev/day Decay rate: -2.4e-07 rev/day^2 Epoch rev: 85582 Checksum: 313
Satellite: NOAA-15 Catalog number: 25338 Epoch time: 11215.70312877 Element set: 0906 Inclination: 098.6577 deg RA of node: 201.2017 deg Eccentricity: 0.0010031 Arg of perigee: 319.3325 deg Mean anomaly: 040.7088 deg Mean motion: 14.24938351 rev/day Decay rate: 2.47e-06 rev/day^2 Epoch rev: 68749 Checksum: 297
Satellite: RESURS Catalog number: 25394 Epoch time: 11215.94991554 Element set: 0863 Inclination: 098.3023 deg RA of node: 216.3458 deg Eccentricity: 0.0002394 Arg of perigee: 081.0082 deg Mean anomaly: 279.1369 deg Mean motion: 14.24236152 rev/day Decay rate: 1.1e-07 rev/day^2 Epoch rev: 67910 Checksum: 289
Satellite: FENGYUN1 Catalog number: 25730 Epoch time: 11216.61245128 Element set: 389 Inclination: 098.8199 deg RA of node: 176.7477 deg Eccentricity: 0.0022437 Arg of perigee: 175.6120 deg Mean anomaly: 184.5244 deg Mean motion: 14.08715454 rev/day Decay rate: 4.72e-06 rev/day^2 Epoch rev: 62988 Checksum: 323
Satellite: OKEAN-0 Catalog number: 25860 Epoch time: 11216.90880154 Element set: 378 Inclination: 097.8889 deg RA of node: 182.0252 deg Eccentricity: 0.0001057 Arg of perigee: 107.7427 deg Mean anomaly: 252.3897 deg Mean motion: 14.73811044 rev/day Decay rate: 1.22e-06 rev/day^2 Epoch rev: 64783 Checksum: 307
Satellite: NOAA-16 Catalog number: 26536 Epoch time: 11215.74487709 Element set: 0388 Inclination: 099.1368 deg RA of node: 247.2475 deg Eccentricity: 0.0009710 Arg of perigee: 258.7558 deg Mean anomaly: 101.2525 deg Mean motion: 14.12633764 rev/day Decay rate: -1.68e-06 rev/day^2 Epoch rev: 56007 Checksum: 325
Satellite: NOAA-17 Catalog number: 27453 Epoch time: 11215.73584762 Element set: 0375 Inclination: 098.3761 deg RA of node: 253.2570 deg Eccentricity: 0.0011982 Arg of perigee: 015.2366 deg Mean anomaly: 344.9174 deg Mean motion: 14.24297316 rev/day Decay rate: 2.6e-07 rev/day^2 Epoch rev: 47342 Checksum: 308
Satellite: NOAA-18 Catalog number: 28654 Epoch time: 11215.66474441 Element set: 0854 Inclination: 098.9992 deg RA of node: 166.9366 deg Eccentricity: 0.0014185 Arg of perigee: 335.2604 deg Mean anomaly: 024.7888 deg Mean motion: 14.11496687 rev/day Decay rate: -1.06e-06 rev/day^2 Epoch rev: 31962 Checksum: 345
Satellite: NOAA-19 Catalog number: 33591 Epoch time: 11215.74338226 Element set: 0045 Inclination: 098.8277 deg RA of node: 155.1023 deg Eccentricity: 0.0013680 Arg of perigee: 198.5868 deg Mean anomaly: 161.4812 deg Mean motion: 14.11190650 rev/day Decay rate: 4.47e-06 rev/day^2 Epoch rev: 12809 Checksum: 302
/EX SB KEPS @ AMSAT $ORB11216.M Orbital Elements 11216.MISC
HR AMSAT ORBITAL ELEMENTS FOR MANNED AND MISCELLANEOUS SATELLITES FROM WA5QGD FORT WORTH,TX August 4, 2011 Send Subscribe/unsubscribe to KEPS at http://www.amsat.org/mailman/listinfo/keps BID: ORB11216.M TO ALL RADIO AMATEURS BT
Satellite: HUBBLE Catalog number: 20580 Epoch time: 11215.04801577 Element set: 811 Inclination: 028.4710 deg RA of node: 070.3193 deg Eccentricity: 0.0003627 Arg of perigee: 254.6533 deg Mean anomaly: 105.3631 deg Mean motion: 15.01440311 rev/day Decay rate: 7.41e-06 rev/day^2 Epoch rev: 96670 Checksum: 246
Satellite: ISS Catalog number: 25544 Epoch time: 11216.87561343 Element set: 833 Inclination: 051.6390 deg RA of node: 275.6758 deg Eccentricity: 0.0013255 Arg of perigee: 039.1664 deg Mean anomaly: 297.2604 deg Mean motion: 15.60250576 rev/day Decay rate: 2.4887e-04 rev/day^2 Epoch rev: 72850 Checksum: 316
Satellite: CO-58 Catalog number: 28895 Epoch time: 11215.62378121 Element set: 0940 Inclination: 097.9593 deg RA of node: 090.1626 deg Eccentricity: 0.0019049 Arg of perigee: 073.3431 deg Mean anomaly: 286.9900 deg Mean motion: 14.60141446 rev/day Decay rate: 2.92e-06 rev/day^2 Epoch rev: 30716 Checksum: 313
Satellite: FALCON Catalog number: 30776 Epoch time: 11215.94874055 Element set: 0144 Inclination: 035.4333 deg RA of node: 056.5313 deg Eccentricity: 0.0000341 Arg of perigee: 038.6331 deg Mean anomaly: 321.4410 deg Mean motion: 15.04793003 rev/day Decay rate: 1.227e-05 rev/day^2 Epoch rev: 24224 Checksum: 241
Satellite: MAST Catalog number: 31126 Epoch time: 11215.93980739 Element set: 0232 Inclination: 097.8947 deg RA of node: 240.4637 deg Eccentricity: 0.0095042 Arg of perigee: 022.7325 deg Mean anomaly: 337.8036 deg Mean motion: 14.53780050 rev/day Decay rate: 2.84e-06 rev/day^2 Epoch rev: 22802 Checksum: 289
Satellite: CAPE1 Catalog number: 31130 Epoch time: 11215.97047944 Element set: 0241 Inclination: 097.8953 deg RA of node: 237.1867 deg Eccentricity: 0.0103069 Arg of perigee: 033.4863 deg Mean anomaly: 327.2789 deg Mean motion: 14.52432433 rev/day Decay rate: 2.19e-06 rev/day^2 Epoch rev: 22757 Checksum: 304
Satellite: COMPASS Catalog number: 32787 Epoch time: 11215.66016561 Element set: 0056 Inclination: 097.8455 deg RA of node: 278.5871 deg Eccentricity: 0.0016318 Arg of perigee: 025.0844 deg Mean anomaly: 335.1160 deg Mean motion: 14.82519063 rev/day Decay rate: 5.13e-06 rev/day^2 Epoch rev: 17659 Checksum: 301
Satellite: AAUSAT2 Catalog number: 32788 Epoch time: 11215.61779487 Element set: 0046 Inclination: 097.8433 deg RA of node: 278.7833 deg Eccentricity: 0.0015886 Arg of perigee: 025.6559 deg Mean anomaly: 334.5485 deg Mean motion: 14.82715395 rev/day Decay rate: 1.396e-05 rev/day^2 Epoch rev: 17660 Checksum: 355
Satellite: DO-64 Catalog number: 32789 Epoch time: 11215.74633372 Element set: 0062 Inclination: 097.8535 deg RA of node: 280.0085 deg Eccentricity: 0.0015809 Arg of perigee: 023.6957 deg Mean anomaly: 336.4979 deg Mean motion: 14.83236136 rev/day Decay rate: 1.553e-05 rev/day^2 Epoch rev: 17663 Checksum: 331
Satellite: CO-66 Catalog number: 32791 Epoch time: 11216.83463608 Element set: 50 Inclination: 097.8446 deg RA of node: 279.6644 deg Eccentricity: 0.0016510 Arg of perigee: 020.7766 deg Mean anomaly: 339.4086 deg Mean motion: 14.82198304 rev/day Decay rate: 5.63e-06 rev/day^2 Epoch rev: 17671 Checksum: 324
Satellite: RS-30 Catalog number: 32953 Epoch time: 11216.68221980 Element set: 964 Inclination: 082.5041 deg RA of node: 132.5817 deg Eccentricity: 0.0017795 Arg of perigee: 284.4073 deg Mean anomaly: 075.5028 deg Mean motion: 12.43014353 rev/day Decay rate: 1.0e-07 rev/day^2 Epoch rev: 14511 Checksum: 272
Satellite: TACSAT-3 Catalog number: 35001 Epoch time: 11215.48647718 Element set: 0673 Inclination: 040.4530 deg RA of node: 245.2163 deg Eccentricity: 0.0021367 Arg of perigee: 207.0918 deg Mean anomaly: 152.8785 deg Mean motion: 15.50303064 rev/day Decay rate: 1.2430e-04 rev/day^2 Epoch rev: 12442 Checksum: 262
Satellite: PHARMSAT Catalog number: 35002 Epoch time: 11215.46981042 Element set: 0623 Inclination: 040.4691 deg RA of node: 243.3668 deg Eccentricity: 0.0022812 Arg of perigee: 213.9177 deg Mean anomaly: 146.0183 deg Mean motion: 15.49660152 rev/day Decay rate: 1.0168e-04 rev/day^2 Epoch rev: 12444 Checksum: 266
Satellite: HAWKSAT1 Catalog number: 35003 Epoch time: 11215.38782880 Element set: 0711 Inclination: 040.4517 deg RA of node: 206.3288 deg Eccentricity: 0.0018717 Arg of perigee: 228.4582 deg Mean anomaly: 131.4636 deg Mean motion: 15.72068429 rev/day Decay rate: 8.1698e-04 rev/day^2 Epoch rev: 12484 Checksum: 306
Satellite: CP6 Catalog number: 35004 Epoch time: 11215.31599524 Element set: 0713 Inclination: 040.4490 deg RA of node: 193.7819 deg Eccentricity: 0.0017616 Arg of perigee: 222.6228 deg Mean anomaly: 137.3253 deg Mean motion: 15.84980464 rev/day Decay rate: 1.99582e-03 rev/day^2 Epoch rev: 12496 Checksum: 316
